GSAT0220 (PRN E13) (43567 NORAD) Tracking and Keplerian Element Data

This shows tracking and keplerian element data for the satellite.

Feedback or suggestion? Click here.




ElementValue
Catalog43567
NameGSAT0220 (PRN E13)
Epoch Orbit198
Epoch Day322.63375061
Epoch Year2018
RAAN56.916
Inclination56.4104
Eccentricity0.0003911
Argument of Perigee255.2049
Mean Anonmoly104.7573
Mean Motion1.70476393
Decay Rate-5.6E-07
L11 43567U 18060D 18322.63375061 -.00000056 00000-0 00000-0 0 9999
L22 43567 56.4104 56.9160 0003911 255.2049 104.7573 1.70476393 1980

Live tracking and technical data element details for GSAT0220 (PRN E13) (NORAD 43567). GSAT0220 (PRN E13) can be tracked NOW for your location showing map with azimuth and elevation plus other details from your city location.

Track the satellite on the map from your city or location and see movement details for azimuth, elevation, latitude, longitude, range, height, and movement on the map or in text.







IsCatalogInMostPopularTable: catalog: 43567, numindb: 42
Update: records affected: 1



GetName: 43567 GSAT0220 (PRN E13)

Hit Count: updated at: Tue, 20 Nov 2018 11:46:20 GMT